Location: Jastrz?bniki
(50.3667°N, 20.3833°E)
Time: 10:07:30
(UTC+00:00)

Nadezhda 2 Rocket - Pass Details

Date: 05 August 2024
Orbit: 947 x 1010 km, 83.0° (Epoch: 09 September)

Event Time Altitude Azimuth Distance (km) Brightness Sun altitude
Rises 02:08:15 0° 349° (N) 3,633 7.9 -9.3°
Reaches altitude 10° 02:10:45 10° 349° (N) 2,687 7.2 -9.0°
Maximum altitude 02:16:53 82° 263° (W) 973 4.5 -8.2°
Drops below altitude 10° 02:23:03 10° 177° (S) 2,698 6.5 -7.5°
Sets 02:25:34 0° 176° (S) 3,650 7.2 -7.1°
